User: anonymous   Login
Location: Myra
(43.4160°N, 88.0960°W)
Time: 14:58:53
(UTC-06:00)
Language:

SL-8 R/B - Orbit

View from above orbital plane
View from above orbital plane
View from above satellite
View from above satellite

Ground track
Ground track

The orbit data is extracted from the following two-line orbital elements,

1 33066U 08031G   18019.92815081 -.00000032  00000-0  27375-4 0  9997
2 33066  48.4425 176.5536 0007909 309.7002 189.1617 14.69593999514632
Epoch (UTC): 19 January 2018 22:16:32
Eccentricity: 0.0007909
inclination: 48.4425°
perigee height: 657 km
apogee height: 668 km
right ascension of ascending node: 176.5536°
argument of perigee: 309.7002°
revolutions per day: 14.69593999
mean anomaly at epoch: 189.1617°
orbit number at epoch: 51463

The dashed part of the orbit path shows where the satellite is in the earth's shadow,  

DLR